TimeHST,TemperatureF,Dew PointF,Humidity,Sea Level PressureIn,VisibilityMPH,Wind Direction,Wind SpeedMPH,Gust SpeedMPH,PrecipitationIn,Events,Conditions,WindDirDegrees,DateUTC
12:57 AM,72.3,66.0,80,30.12,10.0,East,8.1,-,0.00,,Mostly Cloudy,80,2013-02-08 10:57:00
1:38 AM,71.6,64.4,78,30.12,6.2,East,5.8,-,N/A,,Mostly Cloudy,90,2013-02-08 11:38:00
1:45 AM,71.6,64.4,78,30.12,6.2,ENE,6.9,-,N/A,,Mostly Cloudy,70,2013-02-08 11:45:00
1:57 AM,72.3,64.9,78,30.10,10.0,East,4.6,-,N/A,,Mostly Cloudy,90,2013-02-08 11:57:00
2:34 AM,71.6,64.4,78,30.10,6.2,East,4.6,-,N/A,,Mostly Cloudy,80,2013-02-08 12:34:00
2:57 AM,72.1,64.9,78,30.09,10.0,ENE,8.1,-,N/A,,Mostly Cloudy,70,2013-02-08 12:57:00
3:06 AM,71.6,64.4,78,30.10,6.2,East,8.1,-,N/A,,Scattered Clouds,80,2013-02-08 13:06:00
3:33 AM,71.6,64.4,78,30.10,6.2,East,5.8,-,N/A,,Mostly Cloudy,80,2013-02-08 13:33:00
3:42 AM,71.6,64.4,78,30.10,6.2,East,5.8,-,N/A,,Mostly Cloudy,80,2013-02-08 13:42:00
3:49 AM,71.6,64.4,78,30.10,6.2,ENE,6.9,-,N/A,,Mostly Cloudy,70,2013-02-08 13:49:00
3:57 AM,71.4,64.9,80,30.08,10.0,ENE,4.6,-,N/A,,Mostly Cloudy,70,2013-02-08 13:57:00
4:57 AM,70.3,64.9,83,30.08,10.0,ENE,6.9,-,0.00,,Mostly Cloudy,70,2013-02-08 14:57:00
5:20 AM,69.8,66.2,88,30.10,10.0,ENE,8.1,-,N/A,,Scattered Clouds,70,2013-02-08 15:20:00
5:57 AM,70.5,66.0,86,30.09,10.0,East,8.1,-,N/A,,Mostly Cloudy,80,2013-02-08 15:57:00
6:57 AM,72.0,64.9,78,30.11,10.0,East,8.1,-,N/A,,Scattered Clouds,80,2013-02-08 16:57:00
7:57 AM,72.9,64.9,76,30.12,10.0,Variable,4.6,-,N/A,,Mostly Cloudy,0,2013-02-08 17:57:00
8:57 AM,74.5,64.0,70,30.13,10.0,East,6.9,-,N/A,,Mostly Cloudy,80,2013-02-08 18:57:00
9:05 AM,-9999,-9999,N/A,30.15,10.0,ENE,8.1,-,N/A,,Scattered Clouds,60,2013-02-08 19:05:00
9:57 AM,74.5,64.9,72,30.14,10.0,ENE,6.9,-,N/A,,Mostly Cloudy,60,2013-02-08 19:57:00
10:10 AM,75.2,64.4,69,30.16,6.2,ENE,9.2,-,N/A,,Scattered Clouds,60,2013-02-08 20:10:00
10:57 AM,77.0,64.9,66,30.13,10.0,ENE,9.2,-,N/A,,Scattered Clouds,60,2013-02-08 20:57:00
11:57 AM,77.0,66.0,69,30.12,10.0,NE,8.1,-,N/A,,Scattered Clouds,50,2013-02-08 21:57:00
12:57 PM,78.8,64.9,62,30.09,10.0,ENE,9.2,-,N/A,,Scattered Clouds,60,2013-02-08 22:57:00
1:57 PM,78.8,66.0,65,30.06,10.0,ENE,9.2,-,N/A,,Scattered Clouds,70,2013-02-08 23:57:00
2:57 PM,78.8,64.9,62,30.05,10.0,ENE,9.2,-,N/A,,Scattered Clouds,70,2013-02-09 00:57:00
3:57 PM,78.8,64.9,62,30.05,10.0,NE,6.9,-,N/A,,Scattered Clouds,50,2013-02-09 01:57:00
4:04 PM,-9999,-9999,N/A,30.06,6.2,NE,6.9,-,N/A,,Mostly Cloudy,40,2013-02-09 02:04:00
4:20 PM,78.8,64.4,61,30.06,10.0,ENE,8.1,-,N/A,,Scattered Clouds,60,2013-02-09 02:20:00
4:57 PM,78.8,64.9,62,30.06,10.0,NE,8.1,-,N/A,,Scattered Clouds,50,2013-02-09 02:57:00
5:57 PM,78.8,64.9,62,30.07,10.0,ENE,3.5,-,N/A,,Clear,60,2013-02-09 03:57:00
6:57 PM,73.4,64.9,75,30.09,10.0,ENE,3.5,-,N/A,,Partly Cloudy,60,2013-02-09 04:57:00
7:57 PM,73.4,64.0,72,30.09,10.0,ENE,5.8,-,N/A,,Partly Cloudy,60,2013-02-09 05:57:00
8:57 PM,73.4,64.0,72,30.10,10.0,East,5.8,-,N/A,,Scattered Clouds,80,2013-02-09 06:57:00
9:57 PM,73.4,64.0,72,30.10,10.0,East,3.5,-,N/A,,Partly Cloudy,80,2013-02-09 07:57:00
10:57 PM,71.6,64.0,77,30.10,10.0,East,4.6,-,N/A,,Partly Cloudy,80,2013-02-09 08:57:00
11:57 PM,71.6,64.0,77,30.09,10.0,Calm,Calm,-,N/A,,Scattered Clouds,0,2013-02-09 09:57:00